Вернуться в каталог

KONDOR FKA 2

АктивенВоенныеSSO
NORAD 62138·PAYLOAD·🇷🇺 Russia

Запущен Nov 29, 2024 с Vostochny Cosmodrome

Loading…

Ближайшие Пролёты (ближайшие 24 часа)

TLE

СвежийSource: Space-Track

Эпоха: Sep 14, 2026, 20:35 UTC

1 62138U 24223A   26257.85787051  .00002933  00000-0  14049-3 0  9994
2 62138  97.4428 100.0093 0001769  88.6581 271.4857 15.19715420 99320

Отслеживайте KONDOR FKA 2 в реальном времени с AllMySat

Download on the App Store